When you browse on this site, cookies collect data to enhance your experience and personalize the content and advertising you see.
Visit our Privacy Policy to learn more. By continuing to use the site, you agree to this use of cookies and data.
  • In Österreich
  • Länderverzeichnis
  • Für 7 Tage
  • Wassertemperatur
  • Satellitenkarten
  • Wetterkarte
  • News
  • Widgets
  • user-avatar
    Anmelden

    Stündliche Wetter Streamwood

    Heute, 23 April, Dienstag

    Zeit Temperatur Niederschläge Wind Luftdruck Luftfeuchtigkeit
    00:00 +17°C° 0.1 mm 5 m/S 735 mmHg 88%
    01:00 +17°C° 0 mm 5 m/S 735 mmHg 88%
    02:00 +16°C° 0 mm 5 m/S 735 mmHg 89%
    03:00 +16°C° 0 mm 5 m/S 736 mmHg 89%
    04:00 +14°C° 0.1 mm 5 m/S 736 mmHg 87%
    05:00 +12°C° 0.1 mm 5 m/S 737 mmHg 84%
    06:00 +10°C° 0.1 mm 5 m/S 738 mmHg 82%
    07:00 +11°C° 0 mm 4 m/S 738 mmHg 80%
    08:00 +11°C° 0 mm 4 m/S 739 mmHg 77%
    09:00 +12°C° 0 mm 4 m/S 740 mmHg 75%
    10:00 +12°C° 0 mm 3 m/S 740 mmHg 72%
    11:00 +13°C° 0 mm 3 m/S 740 mmHg 70%
    12:00 +13°C° 0 mm 3 m/S 741 mmHg 68%
    13:00 +14°C° 0 mm 3 m/S 741 mmHg 63%
    14:00 +16°C° 0 mm 2 m/S 740 mmHg 58%
    15:00 +17°C° 0 mm 2 m/S 740 mmHg 53%
    16:00 +16°C° 0 mm 2 m/S 740 mmHg 55%
    17:00 +16°C° 0 mm 2 m/S 740 mmHg 57%
    18:00 +15°C° 0 mm 2 m/S 740 mmHg 58%
    19:00 +14°C° 0 mm 2 m/S 741 mmHg 61%
    20:00 +13°C° 0 mm 2 m/S 741 mmHg 64%
    21:00 +10°C° 0 mm 2 m/S 741 mmHg 67%
    22:00 +10°C° 0 mm 2 m/S 741 mmHg 68%
    23:00 +10°C° 0 mm 1 m/S 741 mmHg 70%

    Morgen, 24 April, Mittwoch

    Zeit Temperatur Niederschläge Wind Luftdruck Luftfeuchtigkeit
    00:00 +10°C° 0 mm 1 m/S 741 mmHg 71%
    01:00 +9°C° 0 mm 1 m/S 741 mmHg 72%
    02:00 +9°C° 0 mm 1 m/S 741 mmHg 73%
    03:00 +9°C° 0 mm 1 m/S 741 mmHg 73%
    04:00 +9°C° 0 mm 1 m/S 741 mmHg 73%
    05:00 +9°C° 0 mm 1 m/S 741 mmHg 72%
    06:00 +9°C° 0 mm 1 m/S 741 mmHg 72%
    07:00 +11°C° 0 mm 1 m/S 741 mmHg 66%
    08:00 +13°C° 0 mm 2 m/S 741 mmHg 61%
    09:00 +15°C° 0 mm 2 m/S 741 mmHg 55%
    10:00 +16°C° 0 mm 2 m/S 740 mmHg 51%
    11:00 +18°C° 0 mm 2 m/S 740 mmHg 46%
    12:00 +19°C° 0 mm 3 m/S 740 mmHg 41%
    13:00 +19°C° 0 mm 3 m/S 739 mmHg 40%
    14:00 +20°C° 0 mm 3 m/S 739 mmHg 40%
    15:00 +20°C° 0 mm 4 m/S 738 mmHg 39%
    16:00 +19°C° 0 mm 3 m/S 738 mmHg 42%
    17:00 +18°C° 0 mm 3 m/S 737 mmHg 45%
    18:00 +17°C° 0 mm 2 m/S 737 mmHg 48%
    19:00 +16°C° 0 mm 2 m/S 737 mmHg 49%
    20:00 +15°C° 0 mm 2 m/S 737 mmHg 51%
    21:00 +14°C° 0 mm 2 m/S 738 mmHg 52%
    22:00 +13°C° 0 mm 2 m/S 737 mmHg 52%
    23:00 +13°C° 0 mm 2 m/S 737 mmHg 53%

    übermorgen, 25 April, Donnerstag

    Zeit Temperatur Niederschläge Wind Luftdruck Luftfeuchtigkeit
    00:00 +12°C° 0 mm 2 m/S 737 mmHg 54%
    01:00 +12°C° 0 mm 2 m/S 737 mmHg 55%
    02:00 +10°C° 0 mm 2 m/S 736 mmHg 57%
    03:00 +10°C° 0 mm 2 m/S 736 mmHg 59%
    04:00 +10°C° 0 mm 2 m/S 736 mmHg 62%
    05:00 +10°C° 0 mm 2 m/S 736 mmHg 66%
    06:00 +10°C° 0 mm 2 m/S 736 mmHg 69%
    07:00 +13°C° 0 mm 2 m/S 736 mmHg 65%
    08:00 +16°C° 0 mm 2 m/S 736 mmHg 61%
    09:00 +18°C° 0 mm 2 m/S 735 mmHg 57%
    10:00 +19°C° 0 mm 3 m/S 735 mmHg 54%
    11:00 +21°C° 0 mm 3 m/S 735 mmHg 51%
    12:00 +22°C° 0 mm 4 m/S 735 mmHg 47%
    13:00 +22°C° 0.1 mm 4 m/S 734 mmHg 48%
    14:00 +23°C° 0.1 mm 4 m/S 734 mmHg 48%
    15:00 +23°C° 0.1 mm 5 m/S 734 mmHg 49%
    16:00 +19°C° 1.9 mm 5 m/S 734 mmHg 59%
    17:00 +15°C° 1.9 mm 6 m/S 734 mmHg 69%
    18:00 +10°C° 1.9 mm 7 m/S 735 mmHg 79%
    19:00 +10°C° 0 mm 6 m/S 736 mmHg 79%
    20:00 +10°C° 0 mm 5 m/S 736 mmHg 78%
    21:00 +10°C° 0 mm 4 m/S 737 mmHg 77%
    22:00 +10°C° 0 mm 3 m/S 737 mmHg 80%
    23:00 +10°C° 0 mm 3 m/S 738 mmHg 82%

    26 April, Freitag

    Zeit Temperatur Niederschläge Wind Luftdruck Luftfeuchtigkeit
    00:00 +9°C° 0 mm 3 m/S 738 mmHg 84%
    01:00 +9°C° 0 mm 3 m/S 738 mmHg 82%
    02:00 +9°C° 0 mm 3 m/S 738 mmHg 81%
    03:00 +9°C° 0 mm 3 m/S 738 mmHg 79%
    04:00 +9°C° 0 mm 3 m/S 738 mmHg 76%
    05:00 +9°C° 0 mm 3 m/S 739 mmHg 74%
    06:00 +9°C° 0 mm 3 m/S 739 mmHg 72%
    07:00 +11°C° 0 mm 3 m/S 740 mmHg 63%
    08:00 +12°C° 0 mm 3 m/S 740 mmHg 54%
    09:00 +14°C° 0 mm 3 m/S 741 mmHg 45%
    10:00 +15°C° 0 mm 4 m/S 741 mmHg 41%
    11:00 +16°C° 0 mm 5 m/S 741 mmHg 37%
    12:00 +17°C° 0 mm 6 m/S 741 mmHg 33%
    13:00 +16°C° 0 mm 6 m/S 741 mmHg 34%
    14:00 +16°C° 0 mm 6 m/S 741 mmHg 35%
    15:00 +16°C° 0 mm 6 m/S 741 mmHg 36%
    16:00 +15°C° 0 mm 5 m/S 741 mmHg 40%
    17:00 +14°C° 0 mm 4 m/S 741 mmHg 43%
    18:00 +13°C° 0 mm 3 m/S 741 mmHg 46%
    19:00 +13°C° 0 mm 3 m/S 741 mmHg 48%
    20:00 +13°C° 0 mm 2 m/S 742 mmHg 49%
    21:00 +12°C° 0 mm 1 m/S 742 mmHg 50%
    22:00 +12°C° 0 mm 1 m/S 742 mmHg 51%
    23:00 +11°C° 0 mm 1 m/S 741 mmHg 52%

    27 April, Samstag

    Zeit Temperatur Niederschläge Wind Luftdruck Luftfeuchtigkeit
    00:00 +10°C° 0 mm 1 m/S 741 mmHg 52%
    01:00 +9°C° 0 mm 2 m/S 740 mmHg 50%
    02:00 +9°C° 0 mm 3 m/S 740 mmHg 47%
    03:00 +9°C° 0 mm 3 m/S 739 mmHg 45%
    04:00 +8°C° 0 mm 4 m/S 739 mmHg 46%
    05:00 +8°C° 0 mm 4 m/S 739 mmHg 46%
    06:00 +9°C° 0 mm 5 m/S 738 mmHg 47%
    07:00 +9°C° 0.1 mm 5 m/S 737 mmHg 53%
    08:00 +10°C° 0.1 mm 6 m/S 736 mmHg 59%
    09:00 +11°C° 0.1 mm 7 m/S 736 mmHg 64%
    10:00 +12°C° 0 mm 7 m/S 734 mmHg 63%
    11:00 +13°C° 0 mm 8 m/S 733 mmHg 62%
    12:00 +15°C° 0 mm 9 m/S 732 mmHg 60%
    13:00 +15°C° 0 mm 9 m/S 732 mmHg 59%
    14:00 +15°C° 0 mm 9 m/S 731 mmHg 59%
    15:00 +16°C° 0 mm 10 m/S 730 mmHg 58%
    16:00 +16°C° 0 mm 9 m/S 730 mmHg 64%
    17:00 +16°C° 0 mm 8 m/S 730 mmHg 70%
    18:00 +17°C° 0 mm 7 m/S 730 mmHg 76%
    19:00 +13°C° 0 mm 8 m/S 731 mmHg 73%
    20:00 +11°C° 0 mm 8 m/S 732 mmHg 70%
    21:00 +9°C° 0 mm 8 m/S 733 mmHg 66%
    22:00 +6°C° 0 mm 7 m/S 734 mmHg 69%
    23:00 +5°C° 0 mm 6 m/S 735 mmHg 71%

    28 April, Sonntag

    Zeit Temperatur Niederschläge Wind Luftdruck Luftfeuchtigkeit
    00:00 +5°C° 0 mm 5 m/S 736 mmHg 73%
    01:00 +3°C° 0 mm 5 m/S 736 mmHg 75%
    02:00 +4°C° 0 mm 4 m/S 737 mmHg 76%
    03:00 +3°C° 0 mm 3 m/S 738 mmHg 78%
    04:00 +3°C° 0 mm 3 m/S 738 mmHg 77%
    05:00 +3°C° 0 mm 3 m/S 739 mmHg 77%
    06:00 +3°C° 0 mm 3 m/S 740 mmHg 76%
    07:00 +4°C° 0 mm 3 m/S 741 mmHg 71%
    08:00 +7°C° 0 mm 3 m/S 741 mmHg 65%
    09:00 +7°C° 0 mm 4 m/S 742 mmHg 59%
    10:00 +9°C° 0 mm 3 m/S 742 mmHg 56%
    11:00 +11°C° 0 mm 3 m/S 742 mmHg 52%
    12:00 +12°C° 0 mm 3 m/S 742 mmHg 48%
    13:00 +12°C° 0 mm 3 m/S 742 mmHg 48%
    14:00 +12°C° 0 mm 4 m/S 741 mmHg 48%
    15:00 +12°C° 0 mm 4 m/S 741 mmHg 48%
    16:00 +11°C° 0 mm 4 m/S 741 mmHg 52%
    17:00 +8°C° 0 mm 5 m/S 741 mmHg 56%
    18:00 +7°C° 0 mm 5 m/S 741 mmHg 60%
    19:00 +6°C° 0 mm 5 m/S 741 mmHg 64%
    20:00 +6°C° 0 mm 5 m/S 741 mmHg 69%
    21:00 +5°C° 0 mm 5 m/S 742 mmHg 73%
    22:00 +6°C° 0.2 mm 5 m/S 741 mmHg 77%
    23:00 +6°C° 0.2 mm 5 m/S 741 mmHg 80%
    Mehr zeigen